Probability
3 55 100 100 100 100 100 100 100 100 100 100 100 100 100 97 90 97 100 100 100 100 100 100 100 100 100 100 100 100 100 100 100 100 90 84 84 94 100 100 97 100 100
6 81 100 100 100 100 100 100 100 100 100 100 100 100 100 94 90 87 94 100 97 100 100 100 100 100 100 100 100 100 100 100 100 94 87 84 84 87 94 97 97 100 100
16 97 100 100 100 100 100 100 100 100 100 100 100 100 90 81 68 87 87 94 97 97 100 100 100 100 100 100 100 100 100 100 100 97 97 87 90 97 94 100 100 100 100
32 97 100 100 100 100 100 100 100 100 100 100 100 97 84 87 84 84 94 90 87 94 100 100 100 100 100 100 100 100 100 100 100 100 100 94 94 97 90 97 97 97 100
35 90 100 100 100 100 100 100 100 100 100 100 100 97 90 97 97 90 84 87 87 87 97 100 100 100 100 100 97 97 100 100 100 100 100 100 94 97 87 94 97 97 100
6 61 100 100 100 100 100 100 100 100 100 100 100 100 100 97 97 65 42 52 84 90 97 97 100 97 87 71 87 94 94 100 100 100 100 97 100 97 90 94 94 97 100
16 48 100 100 100 100 100 100 100 100 100 100 97 100 100 97 90 45 13 23 58 58 71 87 94 81 55 45 58 74 94 100 71 84 97 100 100 100 100 97 97 97 100
19 55 100 100 100 100 100 100 100 100 100 100 97 100 100 100 100 32 10 10 26 32 58 81 87 35 19 13 16 42 84 94 81 84 94 100 100 100 100 97 97 97 100
26 35 94 100 100 100 100 100 100 100 100 100 97 100 100 100 94 32 10 6 23 45 55 68 48 13 6 3 0 13 74 94 19 52 84 97 100 100 100 97 94 100 100
19 26 74 77 81 94 97 100 100 100 100 100 100 100 100 100 84 26 10 13 16 10 16 26 19 6 3 3 0 26 77 74 3 29 45 94 97 100 100 100 100 100 100
10 3 13 13 23 32 29 97 100 100 100 100 100 100 100 39 19 13 0 10 13 3 3 3 6 0 0 0 3 55 23 0 0 3 26 84 87 90 94 100 100 100 100
6 0 0 0 3 3 10 42 39 94 94 94 87 97 6 0 0 3 0 10 3 0 0 0 0 0 0 0 0 3 0 0 0 6 61 94 61 68 74 94 100 100 100
6 3 0 0 0 0 0 0 0 0 23 10 10 3 0 0 0 0 0 6 0 0 0 0 0 0 0 0 0 0 0 0 0 3 74 100 87 81 81 94 100 100 100
6 6 6 0 0 0 0 0 0 0 3 0 0 3 0 0 0 0 0 0 0 0 0 0 0 0 0 0 0 0 0 0 0 3 84 100 97 97 97 97 100 100 100
10 6 6 0 0 0 0 0 0 0 3 0 0 0 0 0 0 0 0 0 0 0 0 0 0 0 0 0 0 0 0 0 0 0 39 100 100 100 100 97 100 100 100
0 0 3 3 0 0 0 0 0 0 0 0 0 0 0 0 0 0 0 0 0 0 0 0 0 0 0 0 0 0 0 0 0 0 13 84 100 100 100 100 100 100 100
0 3 0 3 0 0 0 0 0 0 0 0 0 0 0 0 0 0 0 0 0 0 0 0 0 0 0 0 0 0 0 0 0 0 3 13 61 100 100 100 100 100 97
3 3 3 10 0 0 0 0 0 0 0 0 0 0 0 0 0 0 0 0 0 0 0 0 0 0 0 0 0 0 0 0 0 0 0 0 3 29 90 100 100 100 84
6 0 3 3 0 3 0 0 0 0 0 0 0 0 0 0 0 0 0 0 0 0 0 0 0 0 0 0 0 0 0 0 0 0 0 0 0 3 13 61 84 87 84
3 6 6 0 0 0 0 0 0 0 0 0 0 0 0 0 0 0 0 0 0 0 0 0 0 0 0 0 0 0 0 0 0 0 0 0 0 0 0 0 0 10 55
3 3 0 3 3 3 6 0 0 0 0 0 0 0 0 0 0 0 0 0 0 0 0 0 0 0 0 0 0 0 0 0 0 0 0 0 0 0 0 0 0 0 0
16 23 23 26 23 13 10 3 0 0 0 0 0 0 0 0 0 0 0 0 0 0 0 0 0 0 0 0 0 0 0 0 0 0 0 0 0 0 0 0 0 0 0
29 65 87 87 65 29 13 0 0 0 0 0 0 0 0 0 0 0 0 0 0 0 0 0 0 0 0 0 0 0 0 0 0 0 0 0 0 0 0 0 0 0 0
65 87 90 87 81 58 26 13 6 3 0 0 0 0 0 0 0 0 0 0 0 0 0 0 0 0 0 0 0 0 0 0 0 0 0 0 0 0 0 0 0 0 0
87 87 87 65 65 45 35 32 26 6 3 0 0 0 0 0 0 0 0 0 0 0 0 0 0 0 0 0 0 0 0 0 0 0 0 0 0 0 0 0 0 0 0
74 74 71 58 55 48 39 19 26 23 10 6 0 0 0 0 0 0 0 0 0 0 0 0 0 0 0 0 0 0 0 0 0 0 0 0 0 0 0 0 0 0 0
Height
5895 5894 5893 5892 5891 5890 5889 5889 5888 5888 5887 5886 5886 5885 5884 5883 5882 5881 5880 5880 5880 5880 5880 5880 5881 5882 5882 5883 5885 5886 5887 5888 5888 5889 5890 5891 5891 5892 5893 5893 5895 5897 5898
5896 5895 5895 5894 5893 5892 5891 5890 5889 5889 5888 5887 5886 5885 5884 5882 5881 5880 5880 5879 5879 5879 5878 5878 5879 5879 5880 5882 5883 5885 5887 5887 5888 5888 5889 5890 5891 5891 5891 5892 5894 5895 5897
5896 5896 5896 5895 5894 5893 5892 5891 5890 5890 5889 5888 5886 5885 5883 5882 5881 5880 5879 5878 5878 5877 5877 5877 5876 5877 5878 5879 5882 5884 5886 5887 5888 5888 5889 5890 5891 5890 5890 5892 5893 5895 5896
5896 5896 5896 5896 5895 5894 5893 5892 5891 5890 5889 5888 5887 5885 5883 5882 5880 5879 5878 5878 5877 5876 5876 5875 5874 5874 5875 5877 5879 5882 5884 5886 5888 5889 5889 5890 5891 5891 5891 5892 5892 5894 5895
5895 5896 5896 5896 5895 5894 5893 5892 5892 5891 5890 5889 5887 5885 5883 5881 5879 5878 5877 5877 5876 5875 5874 5874 5873 5872 5872 5874 5877 5880 5883 5885 5887 5888 5889 5890 5891 5891 5891 5892 5892 5893 5894
5895 5896 5896 5896 5896 5895 5894 5893 5892 5891 5890 5889 5887 5885 5883 5880 5879 5877 5876 5876 5875 5874 5873 5873 5872 5871 5871 5873 5875 5878 5881 5884 5886 5888 5889 5890 5891 5891 5892 5892 5892 5893 5894
5894 5895 5896 5896 5896 5895 5894 5893 5892 5891 5890 5888 5887 5884 5882 5880 5878 5877 5876 5875 5874 5873 5873 5872 5872 5871 5871 5872 5874 5877 5881 5883 5885 5886 5888 5889 5890 5891 5891 5892 5892 5893 5893
5892 5894 5895 5895 5895 5895 5894 5893 5892 5890 5889 5888 5886 5884 5882 5880 5878 5876 5875 5873 5873 5873 5872 5872 5872 5872 5871 5871 5873 5876 5879 5881 5883 5885 5886 5888 5889 5890 5890 5891 5892 5892 5893
5892 5893 5894 5894 5895 5894 5894 5893 5891 5890 5889 5887 5885 5883 5881 5879 5878 5876 5874 5873 5872 5871 5871 5872 5872 5872 5872 5872 5873 5876 5878 5879 5881 5883 5885 5886 5888 5889 5889 5890 5891 5891 5892
5892 5892 5893 5893 5894 5894 5894 5893 5891 5890 5888 5886 5884 5882 5880 5878 5877 5875 5874 5872 5871 5870 5870 5871 5871 5872 5872 5873 5874 5876 5876 5878 5880 5881 5883 5885 5887 5888 5889 5889 5890 5890 5891
5891 5891 5891 5892 5892 5893 5893 5892 5891 5889 5887 5885 5883 5881 5879 5878 5876 5875 5873 5871 5870 5869 5869 5869 5870 5871 5872 5873 5874 5875 5876 5877 5879 5880 5882 5884 5886 5887 5888 5888 5889 5889 5889
5890 5890 5890 5890 5891 5891 5891 5891 5890 5888 5886 5884 5882 5880 5879 5877 5875 5874 5872 5871 5869 5867 5867 5868 5869 5870 5871 5872 5873 5874 5875 5877 5878 5880 5881 5883 5884 5886 5887 5887 5887 5887 5888
5889 5888 5889 5889 5889 5889 5889 5888 5888 5886 5885 5883 5881 5879 5877 5876 5874 5873 5871 5870 5868 5866 5866 5866 5867 5868 5868 5869 5871 5872 5874 5876 5877 5878 5879 5881 5882 5883 5885 5885 5885 5885 5886
5887 5887 5886 5886 5886 5886 5885 5885 5885 5884 5883 5881 5879 5878 5876 5875 5873 5871 5870 5869 5867 5866 5865 5865 5865 5865 5866 5867 5868 5870 5871 5873 5874 5876 5877 5878 5879 5880 5881 5882 5883 5883 5884
5886 5885 5884 5883 5883 5883 5882 5882 5881 5881 5880 5879 5877 5876 5874 5873 5872 5870 5869 5868 5866 5864 5864 5863 5864 5864 5864 5864 5865 5866 5868 5869 5871 5872 5874 5875 5876 5876 5877 5879 5880 5880 5881
5883 5882 5881 5880 5880 5879 5879 5878 5878 5877 5876 5876 5875 5874 5873 5871 5870 5869 5868 5866 5865 5863 5862 5861 5861 5862 5862 5862 5862 5863 5864 5865 5866 5868 5869 5870 5871 5872 5873 5874 5876 5877 5878
5880 5879 5878 5877 5876 5875 5875 5874 5874 5874 5873 5872 5871 5871 5870 5869 5868 5867 5865 5864 5862 5861 5860 5859 5859 5859 5859 5859 5859 5859 5860 5861 5862 5863 5864 5865 5866 5868 5869 5870 5872 5873 5874
5875 5875 5874 5873 5872 5872 5871 5871 5870 5870 5870 5869 5868 5867 5867 5866 5865 5864 5863 5861 5860 5858 5857 5856 5856 5855 5855 5855 5855 5856 5856 5857 5858 5859 5860 5861 5862 5863 5865 5866 5868 5869 5870
5870 5870 5869 5869 5869 5868 5868 5867 5866 5866 5865 5865 5864 5863 5863 5862 5862 5860 5859 5858 5857 5856 5854 5853 5852 5851 5850 5850 5851 5852 5853 5853 5853 5855 5856 5857 5858 5859 5861 5863 5864 5865 5866
5865 5865 5864 5864 5864 5864 5864 5863 5863 5862 5861 5861 5860 5859 5859 5858 5857 5856 5855 5854 5853 5851 5850 5849 5848 5847 5846 5846 5845 5847 5849 5849 5849 5851 5852 5853 5854 5856 5857 5859 5861 5862 5863
5859 5859 5859 5859 5859 5859 5859 5859 5859 5859 5858 5857 5856 5855 5854 5853 5852 5851 5850 5848 5847 5846 5845 5844 5843 5843 5842 5841 5841 5842 5844 5845 5846 5847 5848 5849 5851 5852 5853 5855 5857 5858 5860
5853 5854 5853 5853 5854 5854 5854 5854 5854 5854 5854 5853 5852 5851 5849 5848 5846 5845 5844 5842 5841 5840 5839 5839 5838 5837 5837 5837 5837 5837 5839 5842 5843 5844 5845 5846 5847 5848 5850 5851 5853 5855 5856
5847 5848 5848 5848 5848 5848 5848 5848 5848 5848 5848 5848 5847 5846 5844 5842 5841 5839 5838 5836 5835 5834 5833 5833 5832 5832 5832 5832 5832 5833 5834 5836 5838 5840 5841 5842 5843 5844 5846 5847 5848 5850 5852
5841 5841 5841 5841 5841 5842 5842 5842 5842 5842 5843 5842 5841 5840 5838 5836 5834 5833 5831 5830 5829 5828 5827 5826 5826 5826 5826 5826 5827 5828 5830 5832 5834 5836 5837 5838 5839 5841 5842 5843 5844 5846 5848
5833 5833 5834 5834 5835 5836 5836 5837 5837 5837 5837 5836 5834 5833 5831 5829 5828 5826 5825 5824 5822 5821 5820 5820 5819 5819 5820 5820 5821 5822 5824 5826 5829 5831 5833 5835 5836 5837 5838 5839 5840 5842 5845
5825 5826 5827 5828 5829 5830 5831 5832 5832 5832 5831 5830 5828 5827 5825 5823 5821 5820 5818 5817 5815 5814 5813 5812 5812 5812 5813 5814 5815 5817 5819 5821 5823 5826 5828 5831 5832 5834 5835 5836 5837 5839 5841
Wind_Speed
7 10 12 14 14 13 12 10 9 9 8 8 7 8 9 8 6 3 3 4 6 8 10 12 13 15 17 17 16 14 13 12 11 14 15 16 17 18 18 17 15 14 13
4 7 10 13 13 12 11 9 9 9 9 9 9 9 10 9 7 4 3 3 5 7 9 11 13 16 19 19 18 15 13 11 9 9 9 10 11 12 13 13 12 13 13
2 4 8 11 12 11 10 9 8 8 9 10 11 11 11 10 7 5 4 4 5 6 8 10 12 16 20 21 20 18 15 12 10 7 5 4 5 7 7 8 10 11 12
2 3 6 10 12 11 9 8 7 8 9 10 12 13 12 10 8 6 5 4 4 5 6 7 9 13 18 21 22 20 18 14 11 9 6 4 3 4 5 6 7 9 10
4 3 5 8 10 10 9 8 7 8 9 11 13 14 13 11 9 7 6 5 4 5 5 6 6 9 13 19 22 22 20 16 13 10 8 7 5 5 5 6 7 7 8
5 3 4 6 9 9 8 8 7 8 10 11 13 14 14 12 11 9 7 6 5 5 5 5 5 5 9 16 19 21 21 19 16 13 11 9 8 8 8 7 6 7 7
5 3 3 4 6 7 8 8 7 8 9 10 12 14 15 14 12 10 8 7 7 6 5 5 4 3 5 12 17 19 20 19 18 16 14 13 11 10 10 9 7 7 7
5 5 4 3 5 6 7 8 8 8 9 10 12 14 15 14 12 11 10 8 7 7 6 5 4 2 3 8 14 18 19 19 19 18 17 15 14 12 11 10 9 8 7
7 6 5 4 4 5 6 7 8 9 10 11 12 13 15 14 13 12 11 9 8 7 6 6 5 3 1 5 10 15 18 19 18 18 17 16 13 11 10 10 10 9 8
7 8 7 6 5 5 6 7 8 9 9 10 12 13 14 13 12 12 11 10 8 8 7 7 7 6 5 4 7 10 13 14 13 12 12 11 9 7 7 8 9 10 9
8 9 9 8 7 6 6 7 8 8 9 9 11 12 13 13 12 12 12 11 9 8 8 8 8 9 8 7 7 9 10 10 10 11 11 10 8 7 8 8 8 9 10
9 10 11 11 10 8 8 9 9 9 9 8 9 11 13 13 12 12 13 12 10 8 8 8 8 10 11 11 11 12 12 11 11 12 13 13 11 10 10 10 9 9 10
10 12 12 13 12 11 10 11 11 10 9 8 8 10 11 12 12 13 13 13 11 9 8 8 8 9 11 14 15 15 15 14 15 16 16 16 15 14 13 12 11 10 10
12 13 14 15 15 14 13 13 12 11 10 9 8 8 10 11 12 14 14 13 12 10 8 8 8 9 11 14 16 17 18 19 20 20 20 20 19 18 16 15 14 12 11
14 15 17 17 17 17 16 15 14 13 11 10 9 8 9 10 10 12 14 14 12 11 9 8 9 10 11 13 15 17 19 21 22 23 24 24 23 22 20 18 17 15 14
15 16 18 19 19 18 17 16 15 14 13 12 10 9 9 9 10 11 12 14 13 11 10 9 10 11 12 13 15 16 18 19 19 21 22 23 23 23 21 20 19 18 17
16 16 16 17 18 17 17 16 14 15 15 13 12 10 9 9 10 12 12 14 15 14 13 12 12 12 13 14 15 16 17 17 18 19 20 21 22 22 21 20 19 19 19
16 17 17 16 15 15 14 15 15 15 14 13 13 12 10 10 11 12 14 14 15 15 14 13 14 14 15 15 16 16 16 16 16 17 18 19 20 21 21 19 18 17 19
17 17 17 16 16 16 15 15 15 16 15 14 14 13 12 12 12 13 14 15 16 16 16 15 14 16 18 18 17 17 16 17 17 17 17 17 17 19 19 19 18 17 18
18 17 17 17 17 17 17 16 16 16 17 16 15 14 14 14 14 15 17 17 18 18 19 18 16 17 19 20 19 18 16 17 17 17 16 16 17 18 18 18 18 17 17
19 18 18 18 18 18 18 18 17 17 17 16 16 15 14 15 16 18 19 20 20 20 21 21 20 19 19 20 21 19 18 16 17 17 16 17 17 18 18 19 19 18 18
20 20 20 20 20 20 20 20 19 16 15 14 15 15 15 17 18 19 21 22 22 23 23 23 23 21 20 20 21 20 19 17 16 16 16 16 17 18 19 19 20 20 20
22 21 22 22 22 22 21 20 18 16 14 14 15 17 18 19 20 21 22 23 24 25 26 26 26 24 21 21 21 21 20 19 17 16 15 15 15 17 18 20 21 22 22
25 24 25 25 24 23 23 20 18 16 15 16 17 19 20 21 22 22 23 24 25 27 27 27 26 25 23 22 22 22 22 21 19 17 16 15 15 16 17 19 21 22 23
28 28 28 27 25 23 21 19 18 17 18 19 20 21 22 22 23 23 23 24 25 27 27 27 27 26 24 23 24 24 24 23 22 20 18 16 15 15 16 18 20 21 22
31 31 30 27 24 21 20 18 17 18 20 21 21 22 22 23 23 23 24 24 25 25 26 27 27 27 25 23 24 25 26 26 24 22 20 18 16 15 15 16 18 18 19
Wind_Direction
33 26 25 25 25 26 28 31 29 25 20 13 5 1 360 0 359 342 293 261 248 242 237 236 235 234 230 229 229 231 234 235 223 216 220 225 224 221 222 222 223 226 228
24 19 20 21 21 21 22 23 20 15 10 4 359 353 350 352 353 346 316 282 262 252 244 241 238 235 232 230 230 231 233 235 227 211 208 212 213 210 209 212 219 222 221
354 9 13 16 18 17 18 17 14 6 0 357 354 351 347 345 347 341 325 306 277 261 253 250 246 239 233 230 229 228 228 230 232 229 217 200 205 204 198 205 215 218 219
271 340 5 12 15 16 18 16 9 2 356 354 354 353 351 347 343 337 324 313 290 270 261 263 259 243 233 227 225 225 224 224 226 232 235 242 245 222 213 217 220 218 220
253 299 352 7 14 17 20 17 9 0 356 355 355 359 359 355 347 335 321 310 294 276 272 279 279 247 229 223 223 224 222 220 223 228 235 247 254 245 233 227 225 224 220
246 275 336 1 11 15 19 16 9 5 0 357 358 1 5 3 357 345 328 311 297 284 279 287 296 257 227 220 220 220 218 220 225 229 236 243 251 251 241 231 228 224 221
240 253 305 349 5 10 14 11 4 3 2 359 360 4 7 7 1 353 338 318 300 290 281 282 301 277 231 219 217 216 216 222 226 230 237 241 248 250 247 233 230 225 217
234 240 267 311 349 2 8 5 359 357 358 1 3 5 8 7 2 354 342 325 306 293 283 272 275 286 230 213 212 213 218 225 230 232 237 240 243 247 244 235 235 232 223
228 237 256 278 314 341 357 2 0 356 357 2 6 9 11 11 5 356 344 331 314 296 284 267 254 250 207 189 200 210 221 227 231 234 237 237 239 240 239 241 237 237 233
231 238 251 266 285 311 335 350 355 354 357 4 11 13 14 13 10 1 350 337 323 302 283 269 249 237 220 191 191 202 215 221 220 216 219 225 227 232 239 245 245 242 240
241 241 249 259 272 289 308 325 337 344 351 1 10 14 16 15 11 7 358 345 329 309 288 273 259 243 231 216 203 203 209 209 206 204 209 214 222 234 245 251 254 250 245
257 246 247 252 261 275 291 303 313 322 331 345 2 10 14 13 9 7 5 356 339 318 296 279 269 255 241 231 226 223 222 220 221 219 219 225 232 240 248 256 261 257 249
275 261 255 256 261 270 280 291 298 303 309 322 344 0 8 10 5 2 4 4 353 334 312 291 274 262 247 238 235 236 236 233 232 230 229 232 238 243 250 256 261 262 255
280 269 264 263 268 273 277 285 290 292 297 305 323 341 353 2 2 1 360 1 359 346 326 299 277 261 250 243 241 241 242 240 237 236 235 236 241 246 250 253 256 259 256
276 269 266 266 268 272 275 279 281 285 291 298 305 321 336 347 352 352 352 356 356 348 333 306 280 266 258 251 247 244 244 244 242 241 241 242 243 245 248 249 250 253 252
275 271 268 267 268 270 272 275 277 280 286 291 297 305 315 326 334 336 338 344 349 343 331 312 286 267 262 260 255 249 246 246 245 244 244 243 243 244 245 245 245 248 247
278 272 270 268 266 267 270 273 276 281 283 286 292 296 297 306 316 321 325 331 336 337 330 319 300 276 260 257 257 255 251 247 247 247 247 246 243 242 241 240 241 243 242
282 276 273 271 269 268 268 273 276 281 283 281 285 289 287 294 303 311 314 317 319 321 320 313 303 288 270 258 253 254 255 251 246 247 248 247 242 239 237 237 241 243 239
284 280 278 274 272 271 270 272 278 284 284 279 281 283 282 292 296 301 302 300 300 302 304 302 298 291 281 271 259 251 251 251 246 245 245 245 241 236 234 236 241 244 238
283 281 279 275 272 272 272 271 274 280 282 283 286 286 286 291 293 294 294 290 286 287 290 292 288 285 280 274 266 257 249 245 245 245 244 243 240 235 233 235 239 241 235
278 278 277 276 273 273 273 273 276 278 280 283 287 288 287 290 290 290 288 286 282 279 281 283 282 279 275 270 264 259 251 242 239 243 243 241 237 233 231 232 235 235 229
271 272 271 271 271 273 273 275 278 280 280 282 285 288 290 289 289 288 286 285 281 278 277 277 279 276 272 266 260 255 250 242 235 239 243 241 234 231 231 231 231 229 224
265 267 267 268 269 271 273 276 279 282 283 285 288 291 293 293 291 288 285 282 278 275 274 274 275 272 267 263 256 250 246 242 235 235 239 239 232 229 229 230 230 227 223
260 261 265 266 269 271 274 277 281 284 285 288 291 292 293 293 291 288 284 280 276 274 272 270 270 267 262 257 250 244 242 241 236 233 236 236 232 229 229 229 229 227 224
252 253 255 259 263 267 272 276 281 284 289 293 294 294 294 293 291 288 285 281 277 273 269 266 265 262 256 252 248 244 241 239 236 233 233 235 231 227 226 228 229 228 225
248 246 250 251 254 259 266 273 279 285 290 292 293 293 293 292 290 287 284 281 277 272 266 263 260 258 252 249 247 244 240 237 233 231 231 232 230 225 221 223 228 230 228